Weather reports worldwide

Advertisment
St. Petersburg, fl, United States of America (2074787): temperature & dewpoint: 07.12.2019 23:00:00 - 13.12.2019 23:00:00 (EST)St. Petersburg, fl, United States of America (2074787): wind speed: 07.12.2019 23:00:00 - 13.12.2019 23:00:00 (EST)St. Petersburg, fl, United States of America (2074787): wind direction: 07.12.2019 23:00:00 - 13.12.2019 23:00:00 (EST)St. Petersburg, fl, United States of America (2074787): reduced air pressure: 07.12.2019 23:00:00 - 13.12.2019 23:00:00 (EST)St. Petersburg, fl, United States of America (2074787): visibility: 07.12.2019 23:00:00 - 13.12.2019 23:00:00 (EST)St. Petersburg, fl, United States of America (2074787): precipitation: 07.12.2019 23:00:00 - 13.12.2019 23:00:00 (EST)
Date & Time tt [°C] td [°C] ff [km/h] ff [kn] dd ppp [hPa] vv [km] rr [mm]
13.12.2019 23:00:00 21,7 20,0 13 7 S 1008,6 11 -
13.12.2019 22:00:00 22,2 20,0 15 8 S 1009,4 15 -
13.12.2019 21:00:00 22,2 20,0 15 8 S 1009,9 16 -
13.12.2019 20:00:00 22,8 20,0 18 10 S 1010,1 16 -
13.12.2019 19:00:00 21,7 19,4 16 9 SSE 1009,6 16 -
13.12.2019 18:00:00 21,7 19,4 15 8 SSW 1010,4 16 -
13.12.2019 17:00:00 22,2 19,4 22 12 S 1010,5 16 0,0
13.12.2019 16:00:00 22,2 19,4 21 11 SSE 1010,4 11 0,8
13.12.2019 15:00:00 22,8 18,9 11 6 SW 1012,6 16 0,0
13.12.2019 14:00:00 22,8 19,4 8 4 WSW 1013,0 16 -
13.12.2019 13:00:00 22,2 20,0 0 0 N 1013,8 16 -
13.12.2019 12:00:00 22,2 19,4 5 3 E 1015,0 16 -
13.12.2019 11:00:00 22,2 19,4 0 0 N 1016,1 16 0,0
13.12.2019 10:00:00 21,7 19,4 0 0 N 1016,4 16 -
13.12.2019 09:00:00 21,7 19,4 0 0 N 1016,4 16 -
13.12.2019 08:00:00 21,1 18,9 0 0 N 1016,2 16 -
13.12.2019 07:00:00 21,1 18,9 9 5 SE 1016,0 16 -
13.12.2019 06:00:00 21,1 18,9 9 5 ESE 1016,0 16 -
13.12.2019 05:00:00 20,6 18,3 11 6 ESE 1016,0 16 -
13.12.2019 04:00:00 21,1 18,3 9 5 ESE 1016,8 16 -
13.12.2019 03:00:00 20,6 18,3 8 4 ESE 1017,4 16 -
13.12.2019 02:00:00 21,1 18,3 11 6 ESE 1018,3 16 -
13.12.2019 01:00:00 21,7 18,9 13 7 E 1019,0 16 0,0
13.12.2019 00:00:00 21,7 19,4 16 9 E 1019,3 16 0,0
12.12.2019 23:00:00 22,8 18,9 21 11 ESE 1019,9 16 -
12.12.2019 22:00:00 22,8 18,9 15 8 E 1020,5 16 -
12.12.2019 21:00:00 22,8 19,4 15 8 E 1020,6 16 -
12.12.2019 20:00:00 22,8 19,4 13 7 ENE 1020,7 16 -
12.12.2019 19:00:00 22,8 19,4 21 11 ENE 1020,6 16 -
12.12.2019 18:00:00 22,8 19,4 18 10 ENE 1020,7 16 0,0
12.12.2019 17:00:00 23,9 19,4 22 12 E 1020,8 16 -
12.12.2019 16:00:00 25,0 18,9 15 8 ENE 1020,8 16 -
12.12.2019 15:00:00 26,1 18,9 22 12 ENE 1020,6 16 -
12.12.2019 14:00:00 26,1 19,4 21 11 ENE 1021,4 16 -
12.12.2019 13:00:00 25,0 18,9 16 9 E 1022,6 16 -
12.12.2019 12:00:00 - - 16 9 E 1023,8 16 -
12.12.2019 11:00:00 21,1 17,2 21 11 ENE 1024,8 16 -
12.12.2019 10:00:00 20,0 16,7 13 7 NE 1025,2 16 -
12.12.2019 09:00:00 - - 15 8 ENE 1025,2 16 -
12.12.2019 08:00:00 18,9 15,6 18 10 NE 1024,7 16 -
12.12.2019 07:00:00 18,9 16,1 16 9 NE 1024,1 16 -
12.12.2019 06:00:00 17,8 15,6 21 11 ENE 1023,6 16 -
12.12.2019 05:00:00 - - 16 9 NE 1023,8 16 -
12.12.2019 04:00:00 - - 18 10 ENE 1023,8 16 -
12.12.2019 03:00:00 - - 18 10 ENE 1023,8 16 -
12.12.2019 02:00:00 - - 21 11 ENE 1024,5 16 -
12.12.2019 01:00:00 - - 16 9 ENE 1024,8 16 -
12.12.2019 00:00:00 - - 18 10 ENE 1024,8 16 -
11.12.2019 23:00:00 - - 18 10 NE 1025,2 16 -
11.12.2019 22:00:00 - - 24 13 NE 1025,5 16 -
11.12.2019 21:00:00 - - 16 9 ENE 1024,8 16 -
11.12.2019 20:00:00 18,9 16,1 22 12 ENE 1023,8 16 -
11.12.2019 19:00:00 - - 24 13 ENE 1023,1 15 -
11.12.2019 18:00:00 - - 21 11 NE 1022,1 16 -
11.12.2019 17:00:00 25,0 20,0 13 7 N 1021,4 16 -
11.12.2019 16:00:00 26,1 20,0 16 9 NW 1021,0 16 -
11.12.2019 15:00:00 27,2 20,6 5 3 N 1020,9 16 -
11.12.2019 14:00:00 26,1 21,1 8 4 N 1021,3 16 -
11.12.2019 13:00:00 23,9 21,7 8 4 NE 1021,8 16 -
11.12.2019 12:00:00 23,9 21,1 8 4 NE 1022,6 16 -
11.12.2019 11:00:00 22,2 21,1 5 3 E 1023,0 4,8 -
11.12.2019 10:00:00 21,7 20,6 8 4 ENE 1022,9 0,8 -
11.12.2019 09:00:00 21,1 20,0 5 3 ESE 1022,2 4,8 -
11.12.2019 08:00:00 - - 0 0 N 1022,1 - -
11.12.2019 07:00:00 21,1 20,0 5 3 - 1021,1 0,4 -
11.12.2019 06:00:00 20,6 20,0 8 4 ESE 1020,3 0,4 -
11.12.2019 05:00:00 20,6 20,0 0 0 N 1020,0 0,4 0,0
11.12.2019 04:00:00 21,1 20,0 5 3 SSE 1019,9 0,4 0,0
11.12.2019 03:00:00 20,6 20,0 5 3 S 1019,7 1,2 0,0
11.12.2019 02:00:00 21,1 20,0 5 3 S 1019,7 2,8 -
11.12.2019 01:00:00 21,7 20,6 5 3 SSW 1019,7 10 -
11.12.2019 00:00:00 22,8 21,7 11 6 SW 1019,7 15 -
10.12.2019 23:00:00 22,2 20,6 5 3 SSW 1019,9 16 -
10.12.2019 22:00:00 21,7 20,0 8 4 SSW 1019,6 16 -
10.12.2019 21:00:00 22,8 20,6 13 7 SSW 1019,4 16 -
10.12.2019 20:00:00 - - 15 8 S 1019,1 16 -
10.12.2019 19:00:00 24,0 22,0 16 9 S 1018,7 16 -
10.12.2019 18:00:00 25,0 21,1 18 10 S 1018,0 16 -
10.12.2019 17:00:00 26,1 21,1 26 14 S 1017,7 16 -
10.12.2019 16:00:00 27,2 21,1 26 14 SSW 1017,5 16 -
10.12.2019 15:00:00 28,0 22,0 31 17 S 1017,7 16 -
10.12.2019 14:00:00 28,9 20,0 29 16 S 1017,8 16 -
10.12.2019 13:00:00 27,2 20,6 26 14 S 1018,4 16 -
10.12.2019 12:00:00 26,0 22,0 18 10 S 1019,7 16 -
10.12.2019 11:00:00 24,4 20,6 16 9 SE 1020,2 16 -
10.12.2019 10:00:00 23,9 21,1 13 7 SSE 1020,3 16 -
10.12.2019 09:00:00 22,2 20,0 13 7 SE 1019,9 15 2,5
10.12.2019 08:00:00 19,4 17,8 11 6 ESE 1019,4 16 0,0
10.12.2019 07:00:00 17,2 16,1 0 0 N 1019,0 2,8 -
10.12.2019 06:00:00 17,8 16,1 0 0 N 1019,0 10 0,0
10.12.2019 05:00:00 18,3 16,7 5 3 NNE 1018,7 11 0,0
10.12.2019 04:00:00 17,2 16,1 0 0 N 1018,9 2,8 -
10.12.2019 03:00:00 18,3 16,7 0 0 N 1018,8 15 -
10.12.2019 02:00:00 18,3 16,7 0 0 N 1019,1 15 -
10.12.2019 01:00:00 19,4 17,2 0 0 N 1019,2 16 0,0
10.12.2019 00:00:00 18,3 17,2 9 5 E 1019,4 16 -
09.12.2019 23:00:00 18,3 16,1 0 0 N 1019,7 16 -
09.12.2019 22:00:00 18,9 17,2 0 0 N 1019,6 16 -
09.12.2019 21:00:00 20,0 17,2 0 0 N 1019,1 16 -
09.12.2019 20:00:00 21,1 17,2 5 3 SSW 1019,0 16 -
09.12.2019 19:00:00 21,7 16,7 8 4 S 1018,7 16 -
09.12.2019 18:00:00 23,3 16,1 9 5 SSW 1018,3 16 -
09.12.2019 17:00:00 25,6 15,6 15 8 SSW 1017,9 16 -
09.12.2019 16:00:00 26,7 15,0 16 9 S 1017,7 16 -
09.12.2019 15:00:00 26,7 15,6 15 8 S 1017,6 16 -
09.12.2019 14:00:00 26,7 15,6 16 9 S 1017,7 16 -
09.12.2019 13:00:00 26,7 16,7 21 11 S 1018,5 16 -
09.12.2019 12:00:00 26,1 16,7 21 11 S 1019,6 16 -
09.12.2019 11:00:00 25,0 16,7 18 10 SE 1020,4 16 -
09.12.2019 10:00:00 23,3 16,7 21 11 SSE 1020,8 16 -
09.12.2019 09:00:00 21,7 16,7 18 10 SSE 1020,0 16 -
09.12.2019 08:00:00 18,9 16,1 13 7 SE 1019,7 16 -
09.12.2019 07:00:00 18,3 15,6 13 7 SE 1019,5 16 -
09.12.2019 06:00:00 17,8 15,6 11 6 SE 1019,3 16 -
09.12.2019 05:00:00 17,8 15,6 9 5 SE 1019,1 16 -
09.12.2019 04:00:00 18,3 15,6 11 6 SE 1019,2 16 -
09.12.2019 03:00:00 19,4 16,1 13 7 SE 1019,6 16 -
09.12.2019 02:00:00 18,9 16,1 13 7 ESE 1019,8 16 -
09.12.2019 01:00:00 18,9 16,1 9 5 ESE 1020,1 16 -
09.12.2019 00:00:00 19,4 16,1 9 5 ESE 1020,4 16 -
08.12.2019 23:00:00 20,0 16,1 11 6 ESE 1020,7 16 -
08.12.2019 22:00:00 19,4 16,1 5 3 ENE 1020,7 16 -
08.12.2019 21:00:00 20,0 16,1 8 4 NNE 1020,7 16 -
08.12.2019 20:00:00 20,6 16,1 5 3 N 1020,3 16 -
08.12.2019 19:00:00 21,7 14,4 5 3 WSW 1020,1 16 -
08.12.2019 18:00:00 22,2 13,9 11 6 WSW 1019,4 16 -
08.12.2019 17:00:00 25,6 16,1 8 4 ESE 1019,2 16 -
08.12.2019 16:00:00 26,7 15,6 9 5 SE 1019,1 16 -
08.12.2019 15:00:00 26,7 16,1 11 6 SSE 1019,6 16 -
08.12.2019 14:00:00 26,1 16,7 16 9 SSE 1019,7 16 -
08.12.2019 13:00:00 26,1 17,2 21 11 SE 1020,5 16 -
08.12.2019 12:00:00 25,0 16,1 16 9 E 1021,5 16 -
08.12.2019 11:00:00 23,3 15,6 9 5 E 1022,4 16 -
08.12.2019 10:00:00 20,6 15,6 8 4 ENE 1022,6 16 -
08.12.2019 09:00:00 18,9 15,6 9 5 ENE 1022,1 16 -
08.12.2019 08:00:00 17,8 15,6 8 4 ENE 1022,0 16 -
08.12.2019 07:00:00 17,2 15,0 5 3 NE 1021,6 16 -
08.12.2019 06:00:00 17,8 15,0 8 4 ENE 1021,0 16 -
08.12.2019 05:00:00 18,3 15,0 11 6 ENE 1020,5 16 -
08.12.2019 04:00:00 18,3 15,0 9 5 ENE 1020,8 16 -
08.12.2019 03:00:00 18,3 13,9 11 6 E 1020,9 16 -
08.12.2019 02:00:00 18,3 13,3 9 5 ENE 1020,9 16 -
08.12.2019 01:00:00 18,3 13,3 11 6 ENE 1021,1 16 -
08.12.2019 00:00:00 18,3 13,3 11 6 ENE 1021,6 16 -
07.12.2019 23:00:00 18,9 13,3 9 5 ENE 1021,7 16 -

tt = temperature
td = dewpoint
ff = wind speed
dd = wind direction
ppp = reduced air pressure
vv = visibility
rr = precipitation

Next stations